Regional Weather Roundup
Issued by NWS

Home | Current Version | Previous Version | Graphics & Text | Print | Product List | Glossary On
Versions: 1 2 3 4 5 6 7 8 9 10 11 12 13 14 15 16 17 18 19 20 21 22 23 24 25 26 27 28 29 30 31 32 33 34 35 36 37 38 39 40 41 42 43 44 45 46 47 48 49 50
000
ASUS43 KIND 230659
RWRIN

WEATHER ROUNDUP FOR INDIANA
NATIONAL WEATHER SERVICE INDIANAPOLIS IN
300 AM EDT SAT MAY 23 2015

NOTE: "FAIR" INDICATES FEW OR NO CLOUDS BELOW 12,000 FEET WITH NO
SIGNIFICANT WEATHER AND/OR OBSTRUCTIONS TO VISIBILITY.

* - STATION DOES NOT REPORT WEATHER SUCH AS PRECIPITATION OR FOG.

+ - STATION NOT QUALITY CONTROLLED BY THE NATIONAL WEATHER SERVICE.
    USE DATA WITH CAUTION...ESPECIALLY DEWPOINT AND RELATIVE
    HUMIDITY OBSERVATIONS.

INZ001>003-010>013-019-020-230800-
NORTHWEST INDIANA

CITY           SKY/WX    TMP DP  RH WIND       PRES   REMARKS
MONTICELLO +   MOCLDY    54  38  54 CALM      30.29S
RENSSELAER +   MOCLDY    54  39  58 E6        30.30S

$$

LMZ046-743>745-230800-
SOUTHERN LAKE MICHIGAN

STATION/POSITION TIME  TEMP    WIND        PRES    WAVE
                       AIR SEA DIR/SP/G            HT
                 (UTC) (F)     (DEG/KT/KT) (MB)    (FT)
BURNS HARBOR     0600   60     130/  9/ 15 1026.4R
MICHIGAN CITY    0600   54     110/  8/  9   N/A
5NW MICH CITY    0600   54 51  130/  4/  6   N/A     1

$$

INZ004-005-014>016-021>024-230800-
NORTH CENTRAL INDIANA

CITY           SKY/WX    TMP DP  RH WIND       PRES   REMARKS
GOSHEN         PTCLDY    45  36  70 SW3       30.32R
SOUTH BEND     MOCLDY    48  37  65 CALM      30.32R
WARSAW +       PTCLDY    46  37  71 CALM      30.32R

$$

INZ006>009-017-018-025>027-230800-
NORTHEAST INDIANA

CITY           SKY/WX    TMP DP  RH WIND       PRES   REMARKS
ANGOLA *+        N/A     43  37  81 CALM      30.31R
FORT WAYNE     PTCLDY    51  36  56 CALM      30.32R

$$

INZ028-029-035-036-043>045-051>053-230800-
WEST CENTRAL INDIANA

CITY           SKY/WX    TMP DP  RH WIND       PRES   REMARKS
CRAWFORDSVL +  MOCLDY    58  32  37 E10       30.28S
GREENCASTLE +  MOCLDY    55  43  62 CALM      30.29S
LAFAYETTE      PTCLDY    54  39  57 E8        30.29S
TERRE HAUTE    CLOUDY    60  54  80 SW3       30.27S

$$

INZ030>032-037>040-046>048-054>057-064-065-230800-
CENTRAL INDIANA

CITY           SKY/WX    TMP DP  RH WIND       PRES   REMARKS
GREENWOOD *+   CLOUDY    59  39  47 CALM      30.29S
INDIANAPOLIS   MOCLDY    58  43  57 NE9       30.27S
-EAGLE CREEK   MOCLDY    58  41  53 NE3       30.29S
KOKOMO *+      PTCLDY    52  39  62 SE3       30.31S
MT COMFORT *+  MOCLDY    50  41  71 NE6       30.30F
SHELBYVILLE    MOCLDY    58  45  62 E8        30.28S

$$

INZ033-034-041-042-049-050-058-059-230800-
EAST CENTRAL INDIANA

CITY           SKY/WX    TMP DP  RH WIND       PRES   REMARKS
MUNCIE         PTCLDY    53  39  59 CALM      30.31R

$$

INZ060-061-067>069-081>083-085>088-230800-
SOUTHWEST INDIANA

CITY           SKY/WX    TMP DP  RH WIND       PRES   REMARKS
EVANSVILLE     MOCLDY    59  54  83 CALM      30.27F
HUNTINGBURG *+ MOCLDY    57  50  77 SE3       30.28S

$$

INZ062-063-066-070>080-084-089>092-230800-
SOUTH CENTRAL AND SOUTHEAST INDIANA

CITY           SKY/WX    TMP DP  RH WIND       PRES   REMARKS
BLOOMINGTON    CLOUDY    57  52  83 CALM      30.28R
MADISON *+     PTCLDY    52  48  87 CALM      30.30F
SEYMOUR +      MOCLDY    55  52  88 NE3       30.28F

$$




USA.gov is the U.S. government's official web portal to all federal, state and local government web resources and services.